FW7298 Weather Reports


Display with metric or nautical units.
time (UTC)temp
F
wind
direction
speed
MPH
gust
MPH
rain 1hr
in
rain 24hr
in
rain mn
in
humidity
%
barometer
mb
20260510094850 52 25 0.0 0.0 0.00 0.00 0.00 95 1012.4
20260510094345 52 13 0.0 0.0 0.00 0.00 0.00 95 1012.4
20260510093842 52 11 0.0 0.0 0.00 0.00 0.00 95 1012.4
20260510093338 52 11 0.0 0.0 0.00 0.00 0.00 95 1012.5
20260510092834 52 13 0.0 0.0 0.00 0.00 0.00 95 1012.4
20260510092331 52 13 0.0 0.0 0.00 0.00 0.00 95 1012.6
20260510091826 52 21 0.0 0.0 0.00 0.00 0.00 95 1012.5
20260510091324 52 17 0.0 0.0 0.00 0.00 0.00 95 1012.6
20260510090820 53 16 0.0 0.0 0.00 0.00 0.00 95 1012.3
20260510090317 53 14 0.0 0.0 0.00 0.00 0.00 95 1012.5
20260510085812 52 7 0.0 0.0 0.00 0.00 0.00 95 1012.5
20260510085307 52 354 0.0 0.0 0.00 0.00 0.00 94 1012.5
20260510084803 53 344 0.0 0.0 0.00 0.00 0.00 94 1012.3
20260510084300 53 353 0.0 0.0 0.00 0.00 0.00 95 1012.0
20260510083757 53 351 0.0 0.0 0.00 0.00 0.00 95 1012.0
20260510083254 53 355 0.0 0.0 0.00 0.00 0.00 95 1012.1
20260510082749 53 359 0.0 0.0 0.00 0.00 0.00 95 1012.0
20260510082246 53 358 0.0 0.0 0.00 0.00 0.00 95 1011.7
20260510081745 53 330 0.0 1.0 0.00 0.00 0.00 95 1011.9
20260510081241 53 315 1.0 1.0 0.00 0.00 0.00 95 1011.8
20260510080737 53 2 0.0 0.0 0.00 0.00 0.00 95 1011.8
20260510080232 53 8 0.0 0.0 0.00 0.00 0.00 95 1011.6
20260510075729 52 3 0.0 0.0 0.00 0.00 0.00 95 1011.7
20260510075227 52 1 0.0 0.0 0.00 0.00 0.00 95 1011.8
20260510074724 52 353 0.0 0.0 0.00 0.00 0.00 95 1011.7
20260510074220 52 321 1.0 1.0 0.00 0.00 0.00 94 1011.6
20260510073717 52 349 1.0 1.0 0.00 0.00 0.00 94 1011.7
20260510073212 53 355 0.0 0.0 0.00 0.00 0.00 94 1011.5
20260510072708 53 18 0.0 0.0 0.00 0.00 0.00 94 1011.5
20260510072205 53 83 0.0 0.0 0.00 0.00 0.00 94 1011.4
20260510071702 53 18 0.0 0.0 0.00 0.00 0.00 94 1011.3
20260510071159 53 16 0.0 0.0 0.00 0.00 0.00 94 1011.4
20260510070656 53 16 0.0 0.0 0.00 0.00 0.00 94 1011.3
20260510070154 53 12 0.0 0.0 0.00 0.00 0.00 94 1011.0
20260510065649 53 349 1.0 1.0 0.00 0.00 0.00 94 1010.8
20260510065145 53 19 0.0 0.0 0.00 0.00 0.00 94 1011.1
20260510064642 53 20 0.0 0.0 0.00 0.00 0.00 94 1011.2
20260510064139 53 19 0.0 0.0 0.00 0.00 0.00 94 1011.0
20260510063636 53 48 0.0 0.0 0.00 0.00 0.00 94 1010.7
20260510063133 54 48 0.0 0.0 0.00 0.00 0.00 94 1010.8
20260510062628 54 52 0.0 0.0 0.00 0.00 0.00 94 1011.2
20260510062124 54 38 0.0 0.0 0.00 0.00 0.00 94 1010.9
20260510061620 54 36 0.0 0.0 0.00 0.00 0.00 94 1010.9
20260510061118 54 18 0.0 0.0 0.00 0.00 0.00 93 1010.9
20260510060614 54 25 0.0 0.0 0.00 0.00 0.00 93 1011.0
20260510060110 55 354 0.0 0.0 0.00 0.00 0.00 93 1011.3
20260510055606 54 26 0.0 0.0 0.00 0.00 0.00 93 1011.0
20260510055104 54 26 0.0 0.0 0.00 0.00 0.00 93 1011.0
20260510054600 55 28 0.0 0.0 0.00 0.00 0.00 93 1011.0
20260510054055 55 31 0.0 0.0 0.00 0.00 0.00 93 1011.1
20260510053555 55 32 0.0 0.0 0.00 0.00 0.00 93 1011.0
20260510053052 55 26 0.0 0.0 0.00 0.00 0.00 93 1011.0
20260510052543 55 25 0.0 0.0 0.00 0.00 0.00 93 1011.2
20260510052039 55 25 0.0 0.0 0.00 0.00 0.00 92 1011.1
20260510051534 55 25 0.0 0.0 0.00 0.00 0.00 92 1010.9
20260510051031 55 25 0.0 0.0 0.00 0.00 0.00 92 1010.9
20260510050529 56 24 0.0 0.0 0.00 0.00 0.00 92 1011.0
20260510050026 56 24 0.0 0.0 0.00 0.00 0.00 92 1010.9
20260510045523 56 24 0.0 0.0 0.00 0.00 0.00 92 1010.8
20260510045018 56 24 0.0 0.0 0.00 0.00 0.00 91 1010.9
20260510044516 56 35 0.0 0.0 0.00 0.00 0.00 91 1010.9
20260510044013 56 38 0.0 0.0 0.00 0.00 0.00 91 1011.0
20260510043508 57 38 0.0 0.0 0.00 0.00 0.00 91 1010.8
20260510043003 57 38 0.0 0.0 0.00 0.00 0.00 91 1010.9
20260510042458 57 37 0.0 0.0 0.00 0.00 0.00 91 1010.8
20260510041953 57 29 0.0 0.0 0.00 0.00 0.00 91 1011.0
20260510041450 57 24 0.0 0.0 0.00 0.00 0.00 91 1010.8
20260510040948 57 21 0.0 0.0 0.00 0.00 0.00 90 1010.8
20260510040444 57 21 0.0 0.0 0.00 0.00 0.00 90 1011.1
20260510035940 57 3 0.0 0.0 0.00 0.00 0.00 90 1010.9
20260510035436 57 356 0.0 0.0 0.00 0.00 0.00 90 1011.0
20260510034931 57 333 0.0 0.0 0.00 0.00 0.00 90 1010.9
20260510034430 57 325 0.0 0.0 0.00 0.00 0.00 90 1011.0
20260510033926 58 354 0.0 0.0 0.00 0.00 0.00 89 1011.0
20260510033422 58 21 0.0 0.0 0.00 0.00 0.00 89 1010.9
20260510032919 58 40 0.0 0.0 0.00 0.00 0.00 88 1010.8
20260510032415 58 50 0.0 0.0 0.00 0.00 0.00 88 1010.7
20260510031911 59 37 0.0 0.0 0.00 0.00 0.00 88 1010.6
20260510031406 59 37 0.0 0.0 0.00 0.00 0.00 88 1010.6
20260510030901 59 36 0.0 0.0 0.00 0.00 0.00 87 1010.7
20260510030358 59 36 0.0 0.0 0.00 0.00 0.00 87 1010.7
20260510025855 59 35 0.0 0.0 0.00 0.00 0.00 87 1010.8
20260510025353 59 36 0.0 0.0 0.00 0.00 0.00 86 1010.7
20260510024850 60 36 0.0 0.0 0.00 0.00 0.00 85 1010.6
20260510024346 60 36 0.0 0.0 0.00 0.00 0.00 85 1010.5
20260510023842 60 35 0.0 0.0 0.00 0.00 0.00 85 1010.4
20260510023339 60 34 0.0 0.0 0.00 0.00 0.00 85 1010.6
20260510022837 60 21 0.0 0.0 0.00 0.00 0.00 84 1010.2
20260510022335 60 21 0.0 0.0 0.00 0.00 0.00 84 1010.4
20260510021834 61 20 0.0 0.0 0.00 0.00 0.00 83 1010.4
20260510021333 61 21 0.0 0.0 0.00 0.00 0.00 83 1010.3
20260510020828 61 20 0.0 0.0 0.00 0.00 0.00 82 1010.5
20260510020323 62 35 0.0 0.0 0.00 0.00 0.00 82 1010.3
20260510015819 62 46 0.0 0.0 0.00 0.00 0.00 81 1010.2
20260510015315 62 36 0.0 0.0 0.00 0.00 0.00 81 1010.0
20260510014810 62 36 0.0 0.0 0.00 0.00 0.00 81 1010.1
20260510014308 62 34 0.0 0.0 0.00 0.00 0.00 81 1009.8
20260510013804 62 33 0.0 0.0 0.00 0.00 0.00 81 1010.0
20260510013300 63 33 0.0 0.0 0.00 0.00 0.00 80 1009.8
20260510012755 63 62 0.0 0.0 0.00 0.00 0.00 79 1009.6
20260510012250 63 63 0.0 0.0 0.00 0.00 0.00 79 1009.7
20260510011749 63 65 0.0 0.0 0.00 0.00 0.00 79 1009.6
20260510011245 63 64 0.0 0.0 0.00 0.00 0.00 79 1009.6
20260510010742 63 65 0.0 0.0 0.00 0.00 0.00 79 1009.5
20260510010239 63 65 0.0 0.0 0.00 0.00 0.00 79 1009.5
20260510005736 63 63 0.0 0.0 0.00 0.00 0.00 79 1009.4
20260510005232 63 63 0.0 0.0 0.00 0.00 0.00 78 1009.3
20260510004730 64 63 0.0 0.0 0.00 0.00 0.00 77 1009.3
20260510004227 64 64 0.0 0.0 0.00 0.00 0.00 76 1009.2
20260510003725 64 65 0.0 0.0 0.00 0.00 0.00 75 1009.2
20260510003221 65 65 0.0 0.0 0.00 0.00 0.00 74 1009.3
20260510002719 65 65 0.0 0.0 0.00 0.00 0.00 74 1009.2
20260510002218 66 65 0.0 0.0 0.00 0.00 0.00 73 1009.1
20260510001714 66 65 0.0 0.0 0.00 0.00 0.00 72 1009.1
20260510001213 67 64 0.0 0.0 0.00 0.00 0.00 71 1009.0
20260510000708 67 64 0.0 0.0 0.00 0.00 0.00 71 1009.0
20260510000205 68 64 0.0 0.0 0.00 0.00 0.00 68 1008.9
20260509235702 68 64 0.0 0.0 0.00 0.00 0.00 67 1008.8
20260509235158 69 65 0.0 0.0 0.00 0.00 0.00 66 1008.8
20260509234655 69 65 0.0 0.0 0.00 0.00 0.00 65 1008.8
20260509234152 69 65 0.0 0.0 0.00 0.00 0.00 65 1008.7
20260509233650 70 65 0.0 0.0 0.00 0.00 0.00 64 1009.0
20260509233147 70 65 0.0 0.0 0.00 0.00 0.00 63 1008.8
20260509232643 71 65 0.0 0.0 0.00 0.00 0.00 63 1008.9
20260509232140 71 65 0.0 0.0 0.00 0.00 0.00 62 1008.7
20260509231637 71 65 0.0 0.0 0.00 0.00 0.00 62 1008.7
20260509231134 72 65 0.0 0.0 0.00 0.00 0.00 61 1008.8
20260509230631 72 64 0.0 0.0 0.00 0.00 0.00 61 1008.5
20260509230128 72 64 0.0 0.0 0.00 0.00 0.00 61 1008.7
20260509225624 72 65 0.0 0.0 0.00 0.00 0.00 60 1008.5
20260509225119 72 64 0.0 0.0 0.00 0.00 0.00 60 1008.7
20260509224615 72 64 0.0 0.0 0.00 0.00 0.00 60 1008.7
20260509224112 72 63 0.0 0.0 0.00 0.00 0.00 59 1008.8
20260509223609 72 62 0.0 0.0 0.00 0.00 0.00 59 1008.9
20260509223107 73 60 0.0 0.0 0.00 0.00 0.00 59 1008.7
20260509222602 73 60 0.0 0.0 0.00 0.00 0.00 59 1008.9
20260509222059 73 60 0.0 0.0 0.00 0.00 0.00 57 1008.9
20260509221554 73 60 0.0 0.0 0.00 0.00 0.00 57 1008.9
20260509221050 73 60 0.0 0.0 0.00 0.00 0.00 57 1009.1
20260509220546 72 62 0.0 0.0 0.00 0.00 0.00 57 1008.8
20260509220043 73 36 0.0 1.0 0.00 0.00 0.00 56 1009.0
20260509215538 73 34 0.0 0.0 0.00 0.00 0.00 56 1008.8
20260509215036 73 35 0.0 0.0 0.00 0.00 0.00 55 1008.9
20260509214533 74 33 0.0 0.0 0.00 0.00 0.00 55 1008.8
20260509214030 73 58 1.0 2.0 0.00 0.00 0.00 54 1008.7
20260509213526 74 129 1.0 1.0 0.00 0.00 0.00 55 1008.8
20260509213023 74 51 0.0 0.0 0.00 0.00 0.00 58 1008.7
20260509212520 73 79 0.0 0.0 0.00 0.00 0.00 58 1008.6
20260509212017 74 41 0.0 0.0 0.00 0.00 0.00 58 1008.5
20260509211512 74 11 0.0 0.0 0.00 0.00 0.00 57 1008.5
20260509211010 74 43 0.0 0.0 0.00 0.00 0.00 56 1008.8
20260509210506 75 11 0.0 0.0 0.00 0.00 0.00 55 1008.6
20260509210003 74 44 0.0 0.0 0.00 0.00 0.00 57 1008.7
20260509205456 74 312 1.0 1.0 0.00 0.00 0.00 56 1008.5
20260509204952 74 125 1.0 1.0 0.00 0.00 0.00 57 1008.4
20260509204449 74 11 2.0 2.0 0.00 0.00 0.00 55 1008.5
20260509203945 74 331 3.0 3.0 0.00 0.00 0.00 56 1008.6
20260509203441 74 45 0.0 1.0 0.00 0.00 0.00 57 1008.6
20260509202939 75 304 3.0 3.0 0.00 0.00 0.00 54 1008.4
20260509202435 74 133 0.0 1.0 0.00 0.00 0.00 55 1008.7
20260509201930 75 336 1.0 1.0 0.00 0.00 0.00 55 1008.7
20260509201425 75 324 1.0 2.0 0.00 0.00 0.00 54 1008.5
20260509200922 75 23 0.0 0.0 0.00 0.00 0.00 57 1008.9
20260509200417 73 81 0.0 1.0 0.00 0.00 0.00 59 1008.7
20260509195914 73 95 1.0 2.0 0.00 0.00 0.00 59 1008.9
20260509195409 73 148 2.0 2.0 0.00 0.00 0.00 59 1009.2
20260509194908 73 128 1.0 2.0 0.00 0.00 0.00 61 1009.2
20260509194405 73 124 0.0 1.0 0.00 0.00 0.00 61 1009.3
20260509193902 72 63 0.0 1.0 0.00 0.00 0.00 61 1009.4
20260509193401 72 226 1.0 2.0 0.00 0.00 0.00 60 1009.4
20260509192858 72 52 0.0 1.0 0.00 0.00 0.00 61 1009.6
20260509192354 72 13 2.0 2.0 0.00 0.00 0.00 59 1009.8
20260509191849 71 355 2.0 2.0 0.00 0.00 0.00 62 1009.5
20260509191345 72 20 1.0 1.0 0.00 0.00 0.00 61 1009.8
20260509190842 72 62 0.0 0.0 0.00 0.00 0.00 60 1009.7
20260509190338 72 149 1.0 1.0 0.00 0.00 0.00 61 1009.7
20260509185836 72 37 1.0 1.0 0.00 0.00 0.00 59 1009.7
20260509185332 71 6 4.0 5.0 0.00 0.00 0.00 59 1010.0
20260509184830 71 203 1.0 1.0 0.00 0.00 0.00 59 1009.8
20260509184327 71 311 0.0 0.0 0.00 0.00 0.00 61 1009.9
20260509183823 70 327 1.0 1.0 0.00 0.00 0.00 61 1009.9
20260509183318 70 295 1.0 2.0 0.00 0.00 0.00 61 1010.4
20260509182814 70 331 5.0 7.0 0.00 0.00 0.00 60 1010.1
20260509182311 70 105 0.0 0.0 0.00 0.00 0.00 63 1010.5
20260509181809 70 351 1.0 1.0 0.00 0.00 0.00 63 1010.4
20260509181306 70 236 1.0 1.0 0.00 0.00 0.00 62 1010.4
20260509180804 70 358 0.0 0.0 0.00 0.00 0.00 63 1010.5
20260509180300 69 80 0.0 0.0 0.00 0.00 0.00 62 1010.5
20260509175756 69 85 0.0 0.0 0.00 0.00 0.00 65 1010.7
20260509175253 69 119 0.0 0.0 0.00 0.00 0.00 63 1010.7
20260509174749 69 9 3.0 3.0 0.00 0.00 0.00 62 1010.7
20260509174244 69 357 2.0 5.0 0.00 0.00 0.00 63 1010.8
20260509173740 69 314 2.0 5.0 0.00 0.00 0.00 62 1010.9
20260509173236 69 28 1.0 3.0 0.00 0.00 0.00 62 1010.9
20260509172732 69 343 0.0 1.0 0.00 0.00 0.00 62 1011.0
20260509172229 69 137 0.0 0.0 0.00 0.00 0.00 63 1010.7
20260509171724 69 60 0.0 1.0 0.00 0.00 0.00 61 1011.0
20260509171221 70 41 0.0 1.0 0.00 0.00 0.00 59 1011.0
20260509170718 71 31 0.0 1.0 0.00 0.00 0.00 59 1010.9
20260509170214 71 219 0.0 0.0 0.00 0.00 0.00 59 1010.8
20260509165712 71 294 2.0 3.0 0.00 0.00 0.00 59 1010.7
20260509165208 70 215 1.0 2.0 0.00 0.00 0.00 59 1010.9
20260509164704 70 184 0.0 1.0 0.00 0.00 0.00 59 1011.0
20260509164200 69 244 2.0 2.0 0.00 0.00 0.00 60 1011.1
20260509163657 68 165 0.0 1.0 0.00 0.00 0.00 61 1011.2
20260509163153 68 159 0.0 0.0 0.00 0.00 0.00 61 1011.0
20260509162651 68 71 1.0 2.0 0.00 0.00 0.00 62 1011.1
20260509162146 68 99 0.0 0.0 0.00 0.00 0.00 61 1011.1
20260509161643 68 229 1.0 1.0 0.00 0.00 0.00 62 1011.0
20260509161138 69 319 3.0 3.0 0.00 0.00 0.00 60 1011.2
20260509160634 68 96 1.0 2.0 0.00 0.00 0.00 61 1011.1
20260509160129 68 16 3.0 3.0 0.00 0.00 0.00 60 1011.2
20260509155626 68 162 0.0 1.0 0.00 0.00 0.00 61 1011.1
20260509155122 68 45 3.0 3.0 0.00 0.00 0.00 60 1011.3
20260509154618 68 334 0.0 0.0 0.00 0.00 0.00 61 1011.3
20260509154115 68 9 0.0 1.0 0.00 0.00 0.00 61 1011.5
20260509153612 68 11 1.0 2.0 0.00 0.00 0.00 61 1011.5
20260509153109 67 199 0.0 0.0 0.00 0.00 0.00 61 1011.7
20260509152605 68 268 1.0 1.0 0.00 0.00 0.00 61 1011.5
20260509152103 68 274 0.0 1.0 0.00 0.00 0.00 61 1011.5
20260509151558 69 162 1.0 1.0 0.00 0.00 0.00 60 1011.4
20260509151057 68 31 1.0 1.0 0.00 0.00 0.00 61 1011.5
20260509150554 67 174 0.0 0.0 0.00 0.00 0.00 63 1011.4
20260509150052 66 15 2.0 2.0 0.00 0.00 0.00 63 1011.7
20260509145547 66 344 0.0 1.0 0.00 0.00 0.00 64 1011.8
20260509145043 65 92 0.0 0.0 0.00 0.00 0.00 66 1011.9
20260509144540 64 27 0.0 0.0 0.00 0.00 0.00 66 1011.6
20260509144037 65 57 0.0 0.0 0.00 0.00 0.00 66 1011.9
20260509143534 64 357 1.0 2.0 0.00 0.00 0.00 66 1012.0
20260509143032 63 145 0.0 1.0 0.00 0.00 0.00 67 1011.9
20260509142527 63 78 0.0 1.0 0.00 0.00 0.00 67 1012.2
20260509142023 62 11 1.0 1.0 0.00 0.00 0.00 67 1012.3
20260509141520 62 24 2.0 3.0 0.00 0.00 0.00 68 1012.1
20260509141017 62 40 0.0 0.0 0.00 0.00 0.00 69 1012.2
20260509140513 62 125 1.0 1.0 0.00 0.00 0.00 69 1012.1
20260509140011 61 143 1.0 2.0 0.00 0.00 0.00 68 1012.4
20260509135508 61 51 2.0 2.0 0.00 0.00 0.00 68 1012.4
20260509135006 61 127 0.0 1.0 0.00 0.00 0.00 67 1012.5
20260509134503 61 14 0.0 1.0 0.00 0.00 0.00 68 1012.2
20260509134000 61 16 0.0 1.0 0.00 0.00 0.00 69 1012.2
20260509133456 60 30 0.0 1.0 0.00 0.00 0.00 69 1012.3
20260509132954 60 357 1.0 2.0 0.00 0.00 0.00 69 1012.4
20260509132453 60 86 0.0 1.0 0.00 0.00 0.00 69 1012.2
20260509131949 60 48 1.0 2.0 0.00 0.00 0.00 70 1012.4
20260509131447 59 350 2.0 3.0 0.00 0.00 0.00 69 1012.4
20260509130943 59 45 0.0 0.0 0.00 0.00 0.00 70 1012.4
20260509130438 59 93 0.0 0.0 0.00 0.00 0.00 70 1012.4
20260509125936 59 115 0.0 0.0 0.00 0.00 0.00 71 1012.4
20260509125432 59 101 1.0 1.0 0.00 0.00 0.00 70 1012.4
20260509124928 59 239 1.0 1.0 0.00 0.00 0.00 71 1012.6
20260509124426 59 94 0.0 0.0 0.00 0.00 0.00 71 1012.5
20260509123923 58 38 0.0 1.0 0.00 0.00 0.00 71 1012.6
20260509123420 58 345 1.0 1.0 0.00 0.00 0.00 70 1012.6
20260509122916 58 46 0.0 1.0 0.00 0.00 0.00 71 1012.7
20260509122413 58 94 1.0 1.0 0.00 0.00 0.00 71 1012.4
20260509121910 58 20 0.0 0.0 0.00 0.00 0.00 72 1012.6
20260509121407 58 40 0.0 0.0 0.00 0.00 0.00 71 1012.5
20260509120905 57 33 0.0 1.0 0.00 0.00 0.00 70 1012.4
20260509120402 57 60 0.0 0.0 0.00 0.00 0.00 71 1012.3
20260509115900 57 117 1.0 2.0 0.00 0.00 0.00 70 1012.4
20260509115357 57 90 1.0 1.0 0.00 0.00 0.00 70 1012.6
20260509114855 57 73 3.0 5.0 0.00 0.00 0.00 69 1012.4
20260509114353 57 49 0.0 1.0 0.00 0.00 0.00 70 1012.6
20260509113852 56 66 0.0 0.0 0.00 0.00 0.00 70 1012.4
20260509113349 56 63 0.0 0.0 0.00 0.00 0.00 70 1012.4
20260509112846 56 52 0.0 0.0 0.00 0.00 0.00 70 1012.4
20260509112343 56 70 0.0 1.0 0.00 0.00 0.00 69 1012.6
20260509111840 56 33 0.0 0.0 0.00 0.00 0.00 68 1012.2
20260509111337 56 24 0.0 1.0 0.00 0.00 0.00 69 1012.3
20260509110835 56 80 0.0 0.0 0.00 0.00 0.00 69 1012.3
20260509110330 56 117 0.0 0.0 0.00 0.00 0.00 68 1012.2
20260509105829 56 66 0.0 0.0 0.00 0.00 0.00 68 1012.4
20260509105327 56 62 0.0 0.0 0.00 0.00 0.00 69 1012.4
20260509104823 56 54 0.0 0.0 0.00 0.00 0.00 68 1012.5
20260509104320 56 54 0.0 0.0 0.00 0.00 0.00 68 1012.4
20260509103818 56 76 0.0 0.0 0.00 0.00 0.00 68 1012.3
20260509103315 56 55 1.0 1.0 0.00 0.00 0.00 66 1012.1
20260509102813 56 64 0.0 0.0 0.00 0.00 0.00 68 1012.2
20260509102310 56 84 0.0 0.0 0.00 0.00 0.00 67 1012.1
20260509101806 56 76 0.0 0.0 0.00 0.00 0.00 67 1012.0
20260509101302 56 53 0.0 0.0 0.00 0.00 0.00 66 1012.1
20260509100800 56 87 0.0 0.0 0.00 0.00 0.00 65 1011.8
20260509100257 56 84 0.0 0.0 0.00 0.00 0.00 64 1011.8
20260509095753 57 73 0.0 0.0 0.00 0.00 0.00 64 1011.9
20260509095251 57 73 0.0 0.0 0.00 0.00 0.00 63 1011.8